Weather History for Kansas City, MO

Change the Weather History Date:

Monday, August 5, 2013

  Actual Average Record
Temperature  
Mean Temperature 78 °F -  
Max Temperature 87 °F 86 °F 100 °F (2000)
Min Temperature 71 °F 68 °F 63 °F (2004)
Cooling Degree Days 14    
Growing Degree Days 28 (Base 50)    
Moisture  
Dew Point 70 °F    
Average Humidity 76    
Maximum Humidity 94    
Minimum Humidity 61    
Precipitation  
Precipitation 0.00 in - - ()
Sea Level Pressure  
Sea Level Pressure 29.92 in    
Wind  
Wind Speed 4 mph (SE)    
Max Wind Speed 10 mph    
Max Gust Speed -    
Visibility 10 miles    
Events      
Averages and records for this station are not official NWS values.
T = Trace of Precipitation, MM = Missing Value Source: NWS Daily Summary

Daily Weather History Graph

Daily Weather History Graph

Search for Another Location

Airport:

Trip Planner

Search our weather history database for the weather conditions in past years. The results will help you decide how hot, cold, wet, or windy it might be!

Date:

Astronomy

Aug. 05, 2013 Rise Set
Actual Time 6:22 AM CDT 8:25 PM CDT
Civil Twilight 5:53 AM CDT 8:54 PM CDT
Nautical Twilight 5:17 AM CDT 9:30 PM CDT
Astronomical Twilight 4:38 AM CDT 10:09 PM CDT
Moon 5:18 AM CDT (8/5) 7:26 PM CDT (8/5)
Length of Visible Light 15h 01m
Length of Day
14h 02m
Waning Crescent, 1% of the Moon is Illuminated
Aug 5
Waning Crescent
Aug 6
New
Aug 14
First Quarter
Aug 20
Full
Aug 28
Last Quarter

Hourly Weather History & Observations

Time (CDT) Temp. Heat Index Dew Point Humidity Pressure Visibility Wind Dir Wind Speed Gust Speed Precip Events Conditions
12:24 AM 73.4 °F - 69.8 °F 88% 30.05 in 10.0 mi SE 5.8 mph - N/A   Overcast
12:54 AM 73.0 °F - 69.1 °F 87% 30.03 in 10.0 mi SE 3.5 mph - N/A   Overcast
1:13 AM 73.4 °F - 69.8 °F 88% 30.04 in 10.0 mi ESE 4.6 mph - N/A   Overcast
1:54 AM 73.0 °F - 69.1 °F 87% 30.00 in 10.0 mi ENE 4.6 mph - N/A   Overcast
2:54 AM 73.0 °F - 69.1 °F 87% 29.99 in 10.0 mi ESE 4.6 mph - N/A   Overcast
3:21 AM 73.4 °F - 69.8 °F 88% 30.01 in 10.0 mi SE 6.9 mph - N/A   Overcast
3:54 AM 73.0 °F - 68.0 °F 84% 29.98 in 10.0 mi SE 4.6 mph - N/A   Overcast
4:06 AM 73.4 °F - 68.0 °F 83% 29.99 in 10.0 mi Calm Calm - N/A   Overcast
4:34 AM 73.4 °F - 68.0 °F 83% 29.98 in 10.0 mi SSE 4.6 mph - N/A   Overcast
4:54 AM 72.0 °F - 68.0 °F 87% 29.96 in 10.0 mi Variable 4.6 mph - N/A   Overcast
5:54 AM 72.0 °F - 68.0 °F 87% 29.95 in 10.0 mi East 3.5 mph - N/A   Overcast
6:10 AM 71.6 °F - 69.8 °F 94% 29.96 in 10.0 mi SSE 4.6 mph - N/A   Overcast
6:54 AM 73.0 °F - 68.0 °F 84% 29.94 in 10.0 mi SSE 5.8 mph - N/A   Overcast
7:54 AM 73.9 °F - 69.1 °F 85% 29.94 in 10.0 mi South 5.8 mph - N/A   Overcast
8:54 AM 75.0 °F - 69.1 °F 82% 29.92 in 10.0 mi South 4.6 mph - N/A   Mostly Cloudy
9:33 AM 77.0 °F - 69.8 °F 78% 29.93 in 10.0 mi SSE 5.8 mph - N/A   Mostly Cloudy
9:54 AM 78.1 °F - 70.0 °F 76% 29.91 in 10.0 mi South 5.8 mph - N/A   Overcast
10:54 AM 78.1 °F - 69.1 °F 74% 29.91 in 10.0 mi Calm Calm - N/A   Overcast
11:54 AM 80.1 °F 83.2 °F 70.0 °F 71% 29.91 in 10.0 mi Calm Calm - N/A   Overcast
12:54 PM 81.0 °F 84.9 °F 71.1 °F 72% 29.92 in 10.0 mi Calm Calm - N/A   Overcast
1:54 PM 82.0 °F 86.3 °F 71.1 °F 69% 29.91 in 10.0 mi NE 3.5 mph - N/A   Overcast
2:41 PM 82.4 °F 87.2 °F 71.6 °F 70% 29.93 in 10.0 mi Calm Calm - N/A   Overcast
2:54 PM 84.9 °F 90.7 °F 72.0 °F 65% 29.90 in 10.0 mi Calm Calm - N/A   Overcast
3:31 PM 82.4 °F 87.2 °F 71.6 °F 70% 29.90 in 10.0 mi SSW 3.5 mph - N/A   Mostly Cloudy
3:54 PM 84.9 °F 90.7 °F 72.0 °F 65% 29.86 in 10.0 mi East 4.6 mph - N/A   Mostly Cloudy
4:04 PM 86.0 °F 93.4 °F 73.4 °F 66% 29.88 in 10.0 mi Calm Calm - N/A   Scattered Clouds
4:32 PM 84.2 °F 89.6 °F 71.6 °F 66% 29.86 in 10.0 mi SSE 4.6 mph - N/A   Mostly Cloudy
4:45 PM 84.2 °F 89.6 °F 71.6 °F 66% 29.85 in 10.0 mi East 4.6 mph - N/A   Mostly Cloudy
4:54 PM 86.0 °F 91.5 °F 71.1 °F 61% 29.83 in 10.0 mi Variable 4.6 mph - N/A   Mostly Cloudy
5:54 PM 86.0 °F 91.5 °F 71.1 °F 61% 29.82 in 10.0 mi ENE 4.6 mph - N/A   Clear
6:54 PM 86.0 °F 91.5 °F 71.1 °F 61% 29.81 in 10.0 mi South 3.5 mph - N/A   Clear
7:54 PM 82.9 °F 87.5 °F 71.1 °F 67% 29.79 in 10.0 mi South 10.4 mph - N/A   Clear
8:54 PM 82.9 °F 87.5 °F 71.1 °F 67% 29.84 in 10.0 mi Calm Calm - N/A   Clear
9:54 PM 80.1 °F 83.8 °F 72.0 °F 76% 29.85 in 9.0 mi NE 6.9 mph - N/A   Clear
10:54 PM 80.1 °F 84.2 °F 73.0 °F 79% 29.84 in 10.0 mi East 8.1 mph - N/A   Overcast
11:54 PM 80.1 °F 83.8 °F 72.0 °F 76% 29.86 in 10.0 mi East 4.6 mph - N/A   Overcast